| time (UTC) | temp F | wind direction | speed knots | gust knots | rain 1hr in | rain 24hr in | rain mn in | humidity % | barometer mb |
| 20260504044934 | 36 | 202 | 0.0 | 0.0 | 0.00 | 0.00 | 0.00 | 85 | 1056.7 |
| 20260504044833 | 36 | 202 | 0.0 | 0.0 | 0.00 | 0.00 | 0.00 | 84 | 1056.6 |
| 20260504043932 | 37 | 202 | 0.0 | 0.0 | 0.00 | 0.00 | 0.00 | 84 | 1056.7 |
| 20260504043832 | 37 | 202 | 0.0 | 0.0 | 0.00 | 0.00 | 0.00 | 84 | 1056.7 |
| 20260504042833 | 37 | 202 | 0.0 | 0.0 | 0.00 | 0.00 | 0.00 | 83 | 1056.8 |
| 20260504041834 | 37 | 202 | 0.0 | 0.0 | 0.00 | 0.00 | 0.00 | 83 | 1056.6 |
| 20260504040917 | 37 | 202 | 0.0 | 0.0 | 0.00 | 0.00 | 0.00 | 84 | 1056.5 |
| 20260504040833 | 37 | 202 | 0.0 | 0.0 | 0.00 | 0.00 | 0.00 | 84 | 1056.7 |
| 20260504035837 | 38 | 202 | 0.0 | 0.0 | 0.00 | 0.00 | 0.00 | 83 | 1056.6 |
| 20260504034838 | 38 | 202 | 0.0 | 0.0 | 0.00 | 0.00 | 0.00 | 83 | 1056.6 |
| 20260504033838 | 38 | 202 | 0.0 | 0.0 | 0.00 | 0.00 | 0.00 | 82 | 1056.4 |
| 20260504032936 | 38 | 202 | 0.0 | 0.0 | 0.00 | 0.00 | 0.00 | 81 | 1056.4 |
| 20260504031937 | 39 | 202 | 0.0 | 0.0 | 0.00 | 0.00 | 0.00 | 81 | 1056.2 |
| 20260504031836 | 39 | 202 | 0.0 | 0.0 | 0.00 | 0.00 | 0.00 | 81 | 1056.2 |
| 20260504030838 | 39 | 202 | 0.0 | 0.0 | 0.00 | 0.00 | 0.00 | 80 | 1056.3 |
| 20260504025938 | 39 | 202 | 0.0 | 0.0 | 0.00 | 0.00 | 0.00 | 79 | 1056.3 |
| 20260504025838 | 39 | 202 | 0.0 | 0.0 | 0.00 | 0.00 | 0.00 | 80 | 1056.3 |
| 20260504024838 | 40 | 202 | 0.0 | 0.0 | 0.00 | 0.00 | 0.00 | 78 | 1056.3 |
| 20260504024738 | 40 | 202 | 0.0 | 0.0 | 0.00 | 0.00 | 0.00 | 79 | 1056.2 |
| 20260504022739 | 41 | 202 | 0.0 | 0.0 | 0.00 | 0.00 | 0.00 | 76 | 1056.2 |
| 20260504015835 | 43 | 202 | 0.0 | 0.0 | 0.00 | 0.00 | 0.00 | 73 | 1056.3 |
| 20260504014837 | 43 | 202 | 0.0 | 0.0 | 0.00 | 0.00 | 0.00 | 71 | 1056.1 |
| 20260504013936 | 44 | 202 | 0.0 | 0.0 | 0.00 | 0.00 | 0.00 | 69 | 1056.2 |
| 20260504012838 | 45 | 202 | 0.0 | 0.0 | 0.00 | 0.00 | 0.00 | 67 | 1056.1 |
| 20260504011837 | 45 | 202 | 0.0 | 0.0 | 0.00 | 0.00 | 0.00 | 64 | 1056.0 |
| 20260504010837 | 46 | 202 | 0.0 | 0.9 | 0.00 | 0.00 | 0.00 | 63 | 1055.9 |
| 20260504010738 | 46 | 202 | 0.0 | 0.0 | 0.00 | 0.00 | 0.00 | 62 | 1056.0 |
| 20260504005837 | 47 | 202 | 0.0 | 0.0 | 0.00 | 0.00 | 0.00 | 60 | 1056.1 |
| 20260504004836 | 48 | 202 | 0.0 | 0.0 | 0.00 | 0.00 | 0.00 | 57 | 1056.0 |
| 20260504004737 | 48 | 202 | 0.0 | 0.9 | 0.00 | 0.00 | 0.00 | 57 | 1055.9 |
| 20260504003738 | 49 | 202 | 0.0 | 0.9 | 0.00 | 0.00 | 0.00 | 55 | 1055.9 |
| 20260504002739 | 50 | 225 | 0.0 | 0.0 | 0.00 | 0.00 | 0.00 | 54 | 1055.7 |
| 20260504002639 | 50 | 225 | 0.0 | 0.0 | 0.00 | 0.00 | 0.00 | 54 | 1055.8 |
| 20260504001639 | 51 | 202 | 0.0 | 0.9 | 0.00 | 0.00 | 0.00 | 51 | 1055.6 |
| 20260504000736 | 53 | 202 | 0.9 | 0.9 | 0.00 | 0.00 | 0.00 | 48 | 1055.7 |
| 20260503235737 | 55 | 135 | 0.9 | 0.9 | 0.00 | 0.00 | 0.00 | 43 | 1055.7 |
| 20260503234737 | 57 | 202 | 0.9 | 2.6 | 0.00 | 0.00 | 0.00 | 38 | 1055.4 |
| 20260503233738 | 58 | 213 | 1.7 | 2.6 | 0.00 | 0.00 | 0.00 | 35 | 1055.2 |
| 20260503232737 | 58 | 233 | 4.3 | 6.1 | 0.00 | 0.00 | 0.00 | 34 | 1055.2 |
| 20260503230738 | 59 | 241 | 2.6 | 4.3 | 0.00 | 0.00 | 0.00 | 33 | 1055.2 |
| 20260503225836 | 59 | 227 | 3.5 | 6.1 | 0.00 | 0.00 | 0.00 | 33 | 1055.0 |
| 20260503225739 | 59 | 227 | 3.5 | 7.0 | 0.00 | 0.00 | 0.00 | 33 | 1055.2 |
| 20260503224738 | 59 | 229 | 6.1 | 8.7 | 0.00 | 0.00 | 0.00 | 33 | 1055.3 |
| 20260503223738 | 59 | 225 | 2.6 | 4.3 | 0.00 | 0.00 | 0.00 | 32 | 1055.2 |
| 20260503222836 | 60 | 201 | 2.6 | 5.2 | 0.00 | 0.00 | 0.00 | 32 | 1055.3 |
| 20260503221840 | 60 | 222 | 3.5 | 5.2 | 0.00 | 0.00 | 0.00 | 32 | 1055.1 |
| 20260503220937 | 60 | 212 | 2.6 | 3.5 | 0.00 | 0.00 | 0.00 | 32 | 1055.2 |
| 20260503213939 | 59 | 226 | 3.5 | 7.0 | 0.00 | 0.00 | 0.00 | 31 | 1055.2 |
| 20260503212937 | 59 | 231 | 4.3 | 8.7 | 0.00 | 0.00 | 0.00 | 32 | 1055.1 |
| 20260503211936 | 59 | 189 | 5.2 | 8.7 | 0.00 | 0.00 | 0.00 | 31 | 1055.0 |
| 20260503205938 | 59 | 238 | 4.3 | 7.8 | 0.00 | 0.00 | 0.00 | 30 | 1055.1 |
| 20260503204037 | 59 | 224 | 5.2 | 9.6 | 0.00 | 0.00 | 0.00 | 30 | 1055.3 |
| 20260503203938 | 59 | 221 | 7.0 | 11.3 | 0.00 | 0.00 | 0.00 | 31 | 1055.1 |
| 20260503202936 | 59 | 246 | 4.3 | 7.0 | 0.00 | 0.00 | 0.00 | 32 | 1055.3 |
| 20260503201936 | 59 | 237 | 7.8 | 12.2 | 0.00 | 0.00 | 0.00 | 33 | 1055.3 |
| 20260503200938 | 58 | 210 | 3.5 | 6.1 | 0.00 | 0.00 | 0.00 | 33 | 1055.4 |
| 20260503194938 | 58 | 232 | 7.0 | 10.4 | 0.00 | 0.00 | 0.00 | 35 | 1055.9 |
| 20260503194836 | 57 | 236 | 6.1 | 9.6 | 0.00 | 0.00 | 0.00 | 34 | 1055.9 |
| 20260503193836 | 57 | 240 | 4.3 | 11.3 | 0.00 | 0.00 | 0.00 | 33 | 1055.9 |
| 20260503193736 | 57 | 230 | 7.0 | 10.4 | 0.00 | 0.00 | 0.00 | 33 | 1055.9 |
| 20260503192737 | 57 | 211 | 7.0 | 10.4 | 0.00 | 0.00 | 0.00 | 35 | 1056.0 |
| 20260503190737 | 57 | 236 | 5.2 | 9.6 | 0.00 | 0.00 | 0.00 | 36 | 1056.0 |
| 20260503185835 | 56 | 232 | 5.2 | 7.8 | 0.00 | 0.00 | 0.00 | 35 | 1056.2 |
| 20260503184837 | 56 | 222 | 3.5 | 6.1 | 0.00 | 0.00 | 0.00 | 35 | 1056.4 |
| 20260503183935 | 56 | 239 | 4.3 | 7.0 | 0.00 | 0.00 | 0.00 | 36 | 1056.5 |
| 20260503182937 | 56 | 223 | 3.5 | 5.2 | 0.00 | 0.00 | 0.00 | 36 | 1056.7 |
| 20260503182835 | 55 | 241 | 6.1 | 12.2 | 0.00 | 0.00 | 0.00 | 36 | 1056.8 |
| 20260503181836 | 55 | 231 | 7.0 | 12.2 | 0.00 | 0.00 | 0.00 | 36 | 1056.8 |
| 20260503175836 | 54 | 218 | 6.1 | 11.3 | 0.00 | 0.00 | 0.00 | 37 | 1056.8 |
| 20260503175737 | 54 | 218 | 6.1 | 10.4 | 0.00 | 0.00 | 0.00 | 36 | 1056.7 |
| 20260503175638 | 54 | 196 | 1.7 | 3.5 | 0.00 | 0.00 | 0.00 | 35 | 1056.6 |
| 20260503174637 | 55 | 221 | 3.5 | 5.2 | 0.00 | 0.00 | 0.00 | 36 | 1056.7 |
| 20260503174537 | 55 | 237 | 6.1 | 13.0 | 0.00 | 0.00 | 0.00 | 35 | 1056.8 |
| 20260503174438 | 55 | 222 | 3.5 | 9.6 | 0.00 | 0.00 | 0.00 | 35 | 1056.7 |
| 20260503173437 | 54 | 198 | 5.2 | 11.3 | 0.00 | 0.00 | 0.00 | 36 | 1056.8 |
| 20260503172436 | 53 | 220 | 5.2 | 8.7 | 0.00 | 0.00 | 0.00 | 37 | 1057.1 |
| 20260503171435 | 53 | 319 | 5.2 | 8.7 | 0.00 | 0.00 | 0.00 | 37 | 1057.2 |
| 20260503170437 | 53 | 241 | 2.6 | 6.1 | 0.00 | 0.00 | 0.00 | 37 | 1057.2 |
| 20260503150438 | 49 | 328 | 2.6 | 5.2 | 0.00 | 0.00 | 0.00 | 43 | 1057.7 |
| 20260503130638 | 45 | 196 | 3.5 | 8.7 | 0.00 | 0.00 | 0.00 | 55 | 1057.8 |
| 20260503110436 | 38 | 225 | 2.6 | 4.3 | 0.00 | 0.00 | 0.00 | 70 | 1056.6 |
| 20260503100138 | 38 | 222 | 2.6 | 4.3 | 0.00 | 0.00 | 0.00 | 72 | 1055.3 |
| 20260503090337 | 39 | 229 | 0.9 | 2.6 | 0.00 | 0.00 | 0.00 | 72 | 1054.9 |
| 20260503081536 | 39 | 207 | 0.9 | 2.6 | 0.00 | 0.00 | 0.00 | 72 | 1054.5 |
| 20260503080535 | 40 | 230 | 1.7 | 2.6 | 0.00 | 0.00 | 0.00 | 71 | 1054.6 |
| 20260503071736 | 41 | 187 | 2.6 | 3.5 | 0.00 | 0.00 | 0.00 | 70 | 1054.1 |
| 20260503054936 | 41 | 227 | 0.9 | 2.6 | 0.00 | 0.00 | 0.00 | 72 | 1054.3 |
| 20260503053936 | 41 | 216 | 0.9 | 1.7 | 0.00 | 0.00 | 0.00 | 71 | 1054.1 |